Wetterdaten: Woche 16.02.09 - 22.02.09 (KW8)
Datum Zeit Temperatur Luftfeuchte Luftdruck Niederschlag Windrichtung Wind
16.02.2009 00:00 -6,0 C 89 % 1027,9 hPa 0,0 l/m SW 2,8 km/h (1 Bft)
16.02.2009 01:00 -6,0 C 90 % 1027,3 hPa 0,0 l/m SW 5,6 km/h (1 Bft)
16.02.2009 02:00 -6,3 C 90 % 1026,9 hPa 0,0 l/m SW 3,1 km/h (1 Bft)
16.02.2009 03:00 -6,4 C 92 % 1026,5 hPa 0,0 l/m N 0,8 km/h (0 Bft)
16.02.2009 04:00 -6,7 C 90 % 1026,1 hPa 0,0 l/m N 0,4 km/h (0 Bft)
16.02.2009 05:00 -7,2 C 93 % 1025,9 hPa 0,0 l/m S 4,3 km/h (1 Bft)
16.02.2009 06:00 -5,9 C 94 % 1025,5 hPa 0,0 l/m SW 10,7 km/h (2 Bft)
16.02.2009 07:00 -5,2 C 91 % 1025,3 hPa 0,0 l/m S-SW 10,9 km/h (2 Bft)
16.02.2009 08:00 -4,9 C 92 % 1025,2 hPa 0,0 l/m S-SW 10,6 km/h (2 Bft)
16.02.2009 09:00 -3,7 C 90 % 1024,9 hPa 0,0 l/m S-SW 11,2 km/h (2 Bft)
16.02.2009 10:00 -1,9 C 82 % 1024,9 hPa 0,0 l/m SW 14,0 km/h (3 Bft)
16.02.2009 11:00 -1,1 C 73 % 1024,9 hPa 0,0 l/m SW 21,0 km/h (4 Bft)
16.02.2009 12:00 -0,9 C 77 % 1024,6 hPa 0,0 l/m W-SW 21,6 km/h (4 Bft)
16.02.2009 13:00 -0,7 C 83 % 1024,2 hPa 0,0 l/m W-SW 20,1 km/h (4 Bft)
16.02.2009 14:00 -0,7 C 87 % 1023,9 hPa 0,0 l/m S-SW 21,0 km/h (4 Bft)
16.02.2009 15:00 -0,8 C 86 % 1023,9 hPa 0,0 l/m W-SW 20,9 km/h (4 Bft)
16.02.2009 16:00 -0,7 C 86 % 1023,8 hPa 0,0 l/m SW 17,3 km/h (3 Bft)
16.02.2009 17:00 -0,8 C 88 % 1024,1 hPa 0,0 l/m SW 12,1 km/h (2 Bft)
16.02.2009 18:00 -1,2 C 90 % 1024,4 hPa 0,0 l/m SW 14,1 km/h (3 Bft)
16.02.2009 19:00 -1,3 C 92 % 1024,2 hPa 0,0 l/m SW 15,2 km/h (3 Bft)
16.02.2009 20:00 -1,2 C 91 % 1023,8 hPa 0,0 l/m SW 20,6 km/h (4 Bft)
16.02.2009 21:00 -1,1 C 91 % 1023,6 hPa 0,0 l/m SW 20,9 km/h (4 Bft)
16.02.2009 22:00 -1,2 C 92 % 1023,3 hPa 0,0 l/m SW 18,0 km/h (3 Bft)
16.02.2009 23:00 -1,2 C 94 % 1022,9 hPa 0,2 l/m SW 16,6 km/h (3 Bft)
17.02.2009 00:00 -1,1 C 95 % 1022,3 hPa 0,4 l/m SW 16,5 km/h (3 Bft)
17.02.2009 01:00 -0,8 C 95 % 1021,7 hPa 1,2 l/m SW 21,0 km/h (4 Bft)
17.02.2009 02:00 -0,7 C 95 % 1021,0 hPa 0,2 l/m W-SW 23,9 km/h (4 Bft)
17.02.2009 03:00 -0,6 C 95 % 1020,2 hPa 0,2 l/m W-SW 29,7 km/h (5 Bft)
17.02.2009 04:00 -0,5 C 95 % 1019,0 hPa 0,4 l/m SW 32,3 km/h (5 Bft)
17.02.2009 05:00 -0,3 C 95 % 1018,4 hPa 0,2 l/m W-SW 32,1 km/h (5 Bft)
17.02.2009 06:00 -0,1 C 95 % 1018,0 hPa 0,2 l/m W-SW 26,4 km/h (4 Bft)
17.02.2009 07:00 -0,1 C 95 % 1017,4 hPa 0,4 l/m W 27,8 km/h (4 Bft)
17.02.2009 08:00 0,2 C 95 % 1017,2 hPa 0,6 l/m W-SW 26,6 km/h (4 Bft)
17.02.2009 09:00 0,6 C 95 % 1017,2 hPa 0,6 l/m W-SW 20,8 km/h (4 Bft)
17.02.2009 10:00 1,0 C 94 % 1017,0 hPa 0,4 l/m W-SW 20,4 km/h (4 Bft)
17.02.2009 11:00 1,4 C 93 % 1016,7 hPa 1,0 l/m W-SW 24,0 km/h (4 Bft)
17.02.2009 12:00 1,5 C 93 % 1016,3 hPa 0,0 l/m W-SW 24,5 km/h (4 Bft)
17.02.2009 13:00 1,6 C 94 % 1015,7 hPa 0,2 l/m W 17,2 km/h (3 Bft)
17.02.2009 14:00 1,7 C 95 % 1015,5 hPa 0,2 l/m W 13,6 km/h (3 Bft)
17.02.2009 15:00 2,0 C 94 % 1015,8 hPa 0,2 l/m W 11,3 km/h (2 Bft)
17.02.2009 16:00 1,9 C 94 % 1016,4 hPa 0,0 l/m W-NW 10,2 km/h (2 Bft)
17.02.2009 17:00 1,5 C 95 % 1016,9 hPa 0,2 l/m W-NW 9,5 km/h (2 Bft)
17.02.2009 18:00 1,3 C 96 % 1017,6 hPa 0,8 l/m NO 9,7 km/h (2 Bft)
17.02.2009 19:00 0,2 C 94 % 1018,9 hPa 0,2 l/m O-NO 22,1 km/h (4 Bft)
17.02.2009 20:00 -1,8 C 87 % 1020,5 hPa 0,0 l/m NO 28,2 km/h (4 Bft)
17.02.2009 21:00 -3,3 C 87 % 1021,9 hPa 0,0 l/m O-NO 20,0 km/h (4 Bft)
17.02.2009 22:00 -4,1 C 86 % 1022,7 hPa 0,0 l/m NO 17,8 km/h (3 Bft)
17.02.2009 23:00 -5,0 C 86 % 1023,2 hPa 0,0 l/m NO 11,7 km/h (2 Bft)
18.02.2009 00:00 -6,0 C 86 % 1023,8 hPa 0,0 l/m NO 9,8 km/h (2 Bft)
18.02.2009 01:00 -6,7 C 89 % 1024,6 hPa 0,0 l/m NO 9,7 km/h (2 Bft)
18.02.2009 02:00 -7,3 C 89 % 1025,3 hPa 0,0 l/m NO 4,4 km/h (1 Bft)
18.02.2009 03:00 -8,3 C 89 % 1025,3 hPa 0,0 l/m N-NO 2,8 km/h (1 Bft)
18.02.2009 04:00 -9,2 C 90 % 1025,0 hPa 0,0 l/m N-NO 2,9 km/h (1 Bft)
18.02.2009 05:00 -9,9 C 91 % 1025,5 hPa 0,0 l/m N-NW 4,4 km/h (1 Bft)
18.02.2009 06:00 -10,4 C 91 % 1025,8 hPa 0,0 l/m N 2,9 km/h (1 Bft)
18.02.2009 07:00 -11,1 C 90 % 1025,9 hPa 0,0 l/m NW 2,5 km/h (1 Bft)
18.02.2009 08:00 -10,8 C 94 % 1026,2 hPa 0,0 l/m N 4,4 km/h (1 Bft)
18.02.2009 09:00 -8,8 C 93 % 1026,4 hPa 0,0 l/m N-NO 7,5 km/h (2 Bft)
18.02.2009 10:00 -7,2 C 89 % 1026,6 hPa 0,0 l/m NO 9,7 km/h (2 Bft)
18.02.2009 11:00 -5,4 C 84 % 1026,7 hPa 0,0 l/m O-NO 12,6 km/h (3 Bft)
18.02.2009 12:00 -4,3 C 78 % 1026,3 hPa 0,0 l/m O-NO 14,4 km/h (3 Bft)
18.02.2009 13:00 -3,7 C 72 % 1025,9 hPa 0,0 l/m O-SO 17,0 km/h (3 Bft)
18.02.2009 14:00 -3,3 C 69 % 1025,5 hPa 0,0 l/m O-NO 15,6 km/h (3 Bft)
18.02.2009 15:00 -3,3 C 68 % 1025,6 hPa 0,0 l/m O 15,3 km/h (3 Bft)
18.02.2009 16:00 -3,7 C 69 % 1025,5 hPa 0,0 l/m O 12,2 km/h (2 Bft)
18.02.2009 17:00 -4,8 C 70 % 1025,6 hPa 0,0 l/m O 10,2 km/h (2 Bft)
18.02.2009 18:00 -6,0 C 76 % 1026,0 hPa 0,0 l/m NO 5,3 km/h (1 Bft)
18.02.2009 19:00 -7,6 C 83 % 1026,3 hPa 0,0 l/m N 2,5 km/h (1 Bft)
18.02.2009 20:00 -8,6 C 87 % 1026,3 hPa 0,0 l/m NO 2,1 km/h (1 Bft)
18.02.2009 21:00 -9,2 C 87 % 1026,4 hPa 0,0 l/m N 0,7 km/h (0 Bft)
18.02.2009 22:00 -9,8 C 88 % 1026,4 hPa 0,0 l/m N 0,8 km/h (0 Bft)
18.02.2009 23:00 -10,4 C 89 % 1026,3 hPa 0,0 l/m N 1,9 km/h (1 Bft)
19.02.2009 00:00 -10,9 C 90 % 1026,5 hPa 0,0 l/m N 3,6 km/h (1 Bft)
19.02.2009 01:00 -11,2 C 90 % 1026,5 hPa 0,0 l/m N-NW 2,1 km/h (1 Bft)
19.02.2009 02:00 -11,7 C 89 % 1026,5 hPa 0,0 l/m N 2,9 km/h (1 Bft)
19.02.2009 03:00 -12,2 C 90 % 1026,6 hPa 0,0 l/m N 1,6 km/h (1 Bft)
19.02.2009 04:00 -12,6 C 89 % 1027,0 hPa 0,0 l/m N 0,1 km/h (0 Bft)
19.02.2009 05:00 -13,2 C 88 % 1027,3 hPa 0,0 l/m N 0,0 km/h (0 Bft)
19.02.2009 06:00 -13,9 C 86 % 1027,7 hPa 0,0 l/m N 0,1 km/h (0 Bft)
19.02.2009 07:00 -14,7 C 86 % 1027,9 hPa 0,0 l/m N 0,0 km/h (0 Bft)
19.02.2009 08:00 -14,4 C 91 % 1028,6 hPa 0,0 l/m N 1,7 km/h (1 Bft)
19.02.2009 09:00 -12,0 C 90 % 1028,6 hPa 0,0 l/m N 1,9 km/h (1 Bft)
19.02.2009 10:00 -9,7 C 87 % 1028,9 hPa 0,0 l/m S-SW 3,1 km/h (1 Bft)
19.02.2009 11:00 -6,3 C 83 % 1029,4 hPa 0,0 l/m N-NW 7,1 km/h (2 Bft)
19.02.2009 12:00 -4,4 C 80 % 1029,4 hPa 0,0 l/m NW 6,1 km/h (2 Bft)
19.02.2009 13:00 -3,4 C 76 % 1029,2 hPa 0,0 l/m W-SW 6,5 km/h (2 Bft)
19.02.2009 14:00 -2,8 C 72 % 1029,4 hPa 0,0 l/m SW 5,7 km/h (1 Bft)
19.02.2009 15:00 -2,5 C 69 % 1029,4 hPa 0,0 l/m SW 6,3 km/h (2 Bft)
19.02.2009 16:00 -2,5 C 69 % 1029,6 hPa 0,0 l/m S-SW 5,5 km/h (1 Bft)
19.02.2009 17:00 -3,6 C 73 % 1029,8 hPa 0,0 l/m SW 5,1 km/h (1 Bft)
19.02.2009 18:00 -4,5 C 77 % 1030,3 hPa 0,0 l/m SW 4,3 km/h (1 Bft)
19.02.2009 19:00 -5,8 C 81 % 1030,4 hPa 0,0 l/m S-SW 2,3 km/h (1 Bft)
19.02.2009 20:00 -7,0 C 84 % 1030,8 hPa 0,0 l/m W-SW 1,3 km/h (1 Bft)
19.02.2009 21:00 -8,1 C 88 % 1030,9 hPa 0,0 l/m S-SW 3,5 km/h (1 Bft)
19.02.2009 22:00 -8,9 C 89 % 1031,2 hPa 0,0 l/m N 1,1 km/h (0 Bft)
19.02.2009 23:00 -9,7 C 88 % 1031,2 hPa 0,0 l/m N 0,5 km/h (0 Bft)
20.02.2009 00:00 -10,3 C 91 % 1031,6 hPa 0,0 l/m N 0,5 km/h (0 Bft)
20.02.2009 01:00 -10,6 C 91 % 1031,7 hPa 0,0 l/m N 0,8 km/h (0 Bft)
20.02.2009 02:00 -10,1 C 92 % 1031,4 hPa 0,0 l/m N 1,7 km/h (1 Bft)
20.02.2009 03:00 -9,2 C 94 % 1030,9 hPa 0,0 l/m S 3,2 km/h (1 Bft)
20.02.2009 04:00 -7,2 C 96 % 1030,8 hPa 0,0 l/m S-SW 6,4 km/h (2 Bft)
20.02.2009 05:00 -6,4 C 94 % 1031,0 hPa 0,0 l/m S-SW 7,9 km/h (2 Bft)
20.02.2009 06:00 -6,2 C 93 % 1030,9 hPa 0,0 l/m S-SW 8,3 km/h (2 Bft)
20.02.2009 07:00 -5,8 C 94 % 1031,1 hPa 0,0 l/m S-SW 8,6 km/h (2 Bft)
20.02.2009 08:00 -5,2 C 93 % 1031,3 hPa 0,0 l/m SW 11,8 km/h (2 Bft)
20.02.2009 09:00 -4,3 C 91 % 1031,2 hPa 0,0 l/m SW 13,7 km/h (3 Bft)
20.02.2009 10:00 -3,9 C 91 % 1031,2 hPa 0,0 l/m SW 15,8 km/h (3 Bft)
20.02.2009 11:00 -3,1 C 91 % 1031,3 hPa 0,0 l/m S-SW 14,1 km/h (3 Bft)
20.02.2009 12:00 -2,2 C 87 % 1031,2 hPa 0,0 l/m SW 13,8 km/h (3 Bft)
20.02.2009 13:00 -1,7 C 83 % 1030,7 hPa 0,0 l/m SW 16,9 km/h (3 Bft)
20.02.2009 14:00 -1,2 C 81 % 1030,6 hPa 0,0 l/m S-SW 12,8 km/h (3 Bft)
20.02.2009 15:00 -1,2 C 82 % 1030,3 hPa 0,0 l/m S 14,6 km/h (3 Bft)
20.02.2009 16:00 -1,2 C 83 % 1030,3 hPa 0,0 l/m S-SW 14,1 km/h (3 Bft)
20.02.2009 17:00 -1,6 C 87 % 1030,3 hPa 0,0 l/m S-SW 13,2 km/h (3 Bft)
20.02.2009 18:00 -1,9 C 90 % 1030,5 hPa 0,0 l/m S-SW 9,3 km/h (2 Bft)
20.02.2009 19:00 -1,9 C 92 % 1030,7 hPa 0,0 l/m S-SW 8,9 km/h (2 Bft)
20.02.2009 20:00 -2,0 C 93 % 1030,7 hPa 0,0 l/m SW 10,5 km/h (2 Bft)
20.02.2009 21:00 -2,2 C 94 % 1030,7 hPa 0,0 l/m S-SW 9,7 km/h (2 Bft)
20.02.2009 22:00 -2,0 C 95 % 1030,8 hPa 0,0 l/m S-SW 10,1 km/h (2 Bft)
20.02.2009 23:00 -1,8 C 96 % 1030,6 hPa 0,6 l/m S-SW 8,3 km/h (2 Bft)
21.02.2009 00:00 -1,6 C 96 % 1030,5 hPa 0,4 l/m S-SW 6,8 km/h (2 Bft)
21.02.2009 01:00 -1,4 C 96 % 1030,3 hPa 0,0 l/m S-SW 8,0 km/h (2 Bft)
21.02.2009 02:00 -1,3 C 97 % 1030,0 hPa 0,0 l/m SW 5,7 km/h (1 Bft)
21.02.2009 03:00 -1,2 C 97 % 1029,8 hPa 0,0 l/m S-SW 6,8 km/h (2 Bft)
21.02.2009 04:00 -1,1 C 97 % 1029,8 hPa 0,0 l/m S-SW 4,0 km/h (1 Bft)
21.02.2009 05:00 -0,9 C 97 % 1029,9 hPa 0,2 l/m S-SW 2,1 km/h (1 Bft)
21.02.2009 06:00 -0,9 C 97 % 1030,1 hPa 0,0 l/m N 1,5 km/h (1 Bft)
21.02.2009 07:00 -0,8 C 97 % 1030,2 hPa 0,0 l/m N 0,3 km/h (0 Bft)
21.02.2009 08:00 -0,5 C 97 % 1030,6 hPa 0,0 l/m S-SW 1,9 km/h (1 Bft)
21.02.2009 09:00 0,4 C 96 % 1030,9 hPa 0,0 l/m S-SW 3,9 km/h (1 Bft)
21.02.2009 10:00 1,6 C 93 % 1030,9 hPa 0,0 l/m SW 7,1 km/h (2 Bft)
21.02.2009 11:00 2,1 C 91 % 1030,7 hPa 0,0 l/m SW 8,7 km/h (2 Bft)
21.02.2009 12:00 2,3 C 91 % 1030,9 hPa 0,0 l/m SW 5,7 km/h (1 Bft)
21.02.2009 13:00 2,4 C 91 % 1030,7 hPa 0,0 l/m S-SW 3,6 km/h (1 Bft)
21.02.2009 14:00 2,7 C 90 % 1030,3 hPa 0,0 l/m SW 5,2 km/h (1 Bft)
21.02.2009 15:00 2,9 C 89 % 1030,5 hPa 0,0 l/m S-SW 5,5 km/h (1 Bft)
21.02.2009 16:00 2,6 C 90 % 1030,6 hPa 0,2 l/m S-SW 4,0 km/h (1 Bft)
21.02.2009 17:00 2,1 C 91 % 1030,6 hPa 0,0 l/m NO 2,1 km/h (1 Bft)
21.02.2009 18:00 1,7 C 92 % 1031,0 hPa 0,0 l/m N 0,9 km/h (0 Bft)
21.02.2009 19:00 1,3 C 93 % 1030,9 hPa 0,0 l/m N 0,4 km/h (0 Bft)
21.02.2009 20:00 1,0 C 94 % 1031,1 hPa 0,0 l/m N 0,1 km/h (0 Bft)
21.02.2009 21:00 0,8 C 95 % 1030,5 hPa 0,0 l/m NO 2,8 km/h (1 Bft)
21.02.2009 22:00 0,6 C 96 % 1029,9 hPa 0,0 l/m NO 2,4 km/h (1 Bft)
21.02.2009 23:00 0,6 C 97 % 1029,4 hPa 0,0 l/m O-SO 3,1 km/h (1 Bft)
22.02.2009 00:00 0,6 C 97 % 1029,4 hPa 0,0 l/m S-SW 2,7 km/h (1 Bft)
22.02.2009 01:00 0,5 C 97 % 1028,8 hPa 0,0 l/m W-SW 2,0 km/h (1 Bft)
22.02.2009 02:00 0,5 C 97 % 1028,9 hPa 0,2 l/m N 1,7 km/h (1 Bft)
22.02.2009 03:00 0,4 C 97 % 1028,3 hPa 1,0 l/m W 3,3 km/h (1 Bft)
22.02.2009 04:00 0,6 C 97 % 1028,0 hPa 1,0 l/m W 4,8 km/h (1 Bft)
22.02.2009 05:00 0,6 C 97 % 1027,4 hPa 1,2 l/m W 2,0 km/h (1 Bft)
22.02.2009 06:00 0,5 C 97 % 1026,9 hPa 1,2 l/m N 0,0 km/h (0 Bft)
22.02.2009 07:00 0,5 C 97 % 1026,7 hPa 0,6 l/m N 0,0 km/h (0 Bft)
22.02.2009 08:00 0,6 C 96 % 1026,5 hPa 0,6 l/m N 0,0 km/h (0 Bft)
22.02.2009 09:00 0,9 C 95 % 1026,2 hPa 0,4 l/m SW 8,8 km/h (2 Bft)
22.02.2009 10:00 1,3 C 94 % 1025,2 hPa 0,0 l/m W-SW 25,1 km/h (4 Bft)
22.02.2009 11:00 1,3 C 93 % 1025,1 hPa 0,0 l/m SW 25,1 km/h (4 Bft)
22.02.2009 12:00 1,4 C 93 % 1024,6 hPa 0,0 l/m SW 29,9 km/h (5 Bft)
22.02.2009 13:00 1,6 C 92 % 1024,1 hPa 0,0 l/m SW 29,9 km/h (5 Bft)
22.02.2009 14:00 1,9 C 92 % 1023,7 hPa 0,0 l/m W-SW 28,6 km/h (4 Bft)
22.02.2009 15:00 1,8 C 92 % 1023,2 hPa 0,0 l/m W 28,4 km/h (4 Bft)
22.02.2009 16:00 1,8 C 92 % 1023,0 hPa 0,0 l/m SW 26,6 km/h (4 Bft)
22.02.2009 17:00 1,5 C 94 % 1022,9 hPa 0,0 l/m W-SW 21,4 km/h (4 Bft)
22.02.2009 18:00 1,3 C 95 % 1023,0 hPa 0,2 l/m W-SW 18,9 km/h (3 Bft)
22.02.2009 19:00 1,2 C 96 % 1022,6 hPa 0,0 l/m SW 15,0 km/h (3 Bft)
22.02.2009 20:00 1,0 C 97 % 1022,3 hPa 0,0 l/m SW 16,5 km/h (3 Bft)
22.02.2009 21:00 1,2 C 97 % 1022,1 hPa 0,0 l/m W-SW 20,4 km/h (4 Bft)
22.02.2009 22:00 1,3 C 97 % 1021,9 hPa 0,0 l/m W-SW 15,0 km/h (3 Bft)
22.02.2009 23:00 1,3 C 97 % 1020,9 hPa 0,0 l/m S-SW 16,0 km/h (3 Bft)
Min-Datum _ 19.02.09 18.02.09 17.02.09 - - 16.02.09
_ Min-Zeit 07:45 15:20 13:30 - - 00:20
Minimum _ -14,9 C 65 % 1015,5 hPa - - 0,0 km/h (0 Bft)
Max-Datum _ 21.02.09 21.02.09 20.02.09 17.02.09 - 17.02.09
_ Max-Zeit 15:05 08:40 00:35 01:00 - 04:40
Maximum _ 3,0 C 98 % 1031,9 hPa 1,2 l/m - 40,2 km/h
SW (6 Bft)
Durchschnitt _ -3,1 C 90 % 1026,4 hPa #15,6 l/m SW 10,3 km/h (2 Bft)